Regional Weather Roundup
Issued by NWS Cleveland, OH

Home | Current Version | Previous Version | Graphics & Text | Print | Product List | Glossary On
Versions: 1 2 3 4 5 6 7 8 9 10 11 12 13 14 15 16 17 18 19 20 21 22 23 24 25 26 27 28 29 30 31 32 33 34 35 36 37 38 39 40 41 42 43 44 45 46 47 48 49 50
000
ASUS41 KCLE 220500
RWRCLE
OHIO REGIONAL WEATHER ROUNDUP
NATIONAL WEATHER SERVICE WILMINGTON, OH
1200 AM EST WED FEB 22 2017

NOTE: "FAIR" INDICATES FEW OR NO CLOUDS BELOW 12,000 FEET WITH NO
SIGNIFICANT WEATHER AND/OR OBSTRUCTIONS TO VISIBILITY.

OHZ001>008-015>018-024>027-034-035-043-044-220600-
   NORTHWEST OHIO

CITY           SKY/WX    TMP DP  RH WIND       PRES   REMARKS
DEFIANCE       FAIR      48  47  96 CALM      29.92F
FINDLAY        FAIR      50  44  80 SW7       29.93S
TOLEDO EXPRESS FAIR      46  46 100 CALM      29.91F FOG
TOLEDO EXEC    FAIR      46  46 100 CALM      29.92F FOG
LIMA           FAIR      54  50  86 S7        29.93F
$$

OHZ009>014-019>023-028>033-038-089-220600-
   NORTHEAST OHIO

CITY           SKY/WX    TMP DP  RH WIND       PRES   REMARKS
CLE-HOPKINS    CLOUDY    51  46  83 CALM      29.96S
CLE-LAKEFRONT  CLOUDY    51  44  77 CALM      29.92F
CUY CO. ARPT   NOT AVBL
LORAIN-ELYRIA  CLOUDY    50  46  86 CALM      29.94F
ASHTABULA      MOCLDY    48  44  86 CALM      29.95F
AKRON-CANTON   CLOUDY    56  45  66 SW5       29.95F
WOOSTER        NOT AVBL
MANSFIELD      CLOUDY    58  48  69 SW8       29.95F
YOUNGSTOWN     CLOUDY    54  44  69 S3        29.96F
$$

OHZ042-051>053-060>062-070>072-077>081-220600-
  SOUTHWEST OHIO

CITY           SKY/WX    TMP DP  RH WIND       PRES   REMARKS
CINC-COVINGTON DRIZZLE   55  55 100 S7        29.96F FOG
CINC-LUNKEN    LGT RAIN  53  53 100 CALM      29.97F VSB 1/4
HAMILTON       FOG       52  52 100 CALM      29.97F VSB 1/2
DAYTON         NOT AVBL
WRIGHT-PAT AFB CLOUDY    54  54 100 SE3       29.95F
DAYTON GENERAL CLOUDY    54  53  97 S5        29.95F
WILMINGTON     LGT RAIN  52  52 100 SE5       29.96F FOG
$$

OHZ036-037-039>041-045>050-054>059-063>069-073>076-082>088-220600-
  CENTRAL AND SOUTHEAST OHIO

CITY           SKY/WX    TMP DP  RH WIND       PRES   REMARKS
COLUMBUS       LGT RAIN  56  52  86 CALM      29.97F
OSU AIRPORT    LGT RAIN  55  54  96 S6        29.96F
BOLTON FIELD   NOT AVBL
RICKENBACK AFB NOT AVBL
NEWARK         LGT RAIN  56  49  77 W3        29.96S
MARION         FAIR      54  47  77 S8        29.95F
LANCASTER      CLOUDY    55  51  86 CALM      29.97F
ZANESVILLE     CLOUDY    57  49  74 S5        29.96F
NEW PHILLY     CLOUDY    51  47  86 CALM      29.96F
$$




USA.gov is the U.S. government's official web portal to all federal, state and local government web resources and services.